Regional Weather Roundup
Issued by NWS

Home | Current Version | Previous Version | Text Only | Print | Product List | Glossary Off
Versions: 1 2 3 4 5 6 7 8 9 10 11 12 13 14 15 16 17 18 19 20 21 22 23 24 25 26 27 28 29 30 31 32 33 34 35 36 37 38 39 40 41 42 43 44 45 46 47 48 49 50

000
ASUS43 KMKX 261910
RWRWI

WISCONSIN REGIONAL WEATHER ROUNDUP
NATIONAL WEATHER SERVICE MILWAUKEE/SULLIVAN WI
100 PM CST THU FEB 26 2015

NOTE: "FAIR" INDICATES FEW OR NO CLOUDS BELOW 12,000 FEET WITH NO
SIGNIFICANT WEATHER AND/OR OBSTRUCTIONS TO VISIBILITY.

WIZ001-002-006>008-014>016-023>028-262000-
NORTHWEST WISCONSIN

CITY           SKY/WX    TMP DP  RH WIND       PRES   REMARKS
SUPERIOR ARPT  SUNNY      7 -10  47 NW9       30.44F WCI  -7
ASHLAND        CLOUDY     7  -8  50 NW5       30.40F WCI  -2
HAYWARD        MOSUNNY    7 -10  46 N8        30.35F WCI  -6
SIREN          SUNNY      7 -10  45 W9        30.40F WCI  -6
CUMBERLAND     SUNNY      5 -13  43 NW10      30.36F WCI -10
RICE LAKE      MOSUNNY    7 -10  47 NW8       30.40S WCI  -6
CHETEK         MOSUNNY    6  -8  51 NW6       30.38F WCI  -4
LADYSMITH      PTSUNNY    8  -7  50 NW8       30.35F WCI  -4
EAU CLAIRE     SUNNY      7  -9  48 N9        30.39F WCI  -7
MENOMONIE      PTSUNNY    9  -5  52 NW8       30.40F WCI  -3
NEW RICHMOND   SUNNY      7  -8  50 N8        30.42S WCI  -5
OSCEOLA        SUNNY      7  -8  49 N5        30.46F WCI  -1
$$

WIZ003>005-009-010-017-018-262000-
NORTH CENTRAL WISCONSIN

CITY           SKY/WX    TMP DP  RH WIND       PRES   REMARKS
MANITOWISH WTR PTSUNNY    4  -8  56 NW9       30.25F WCI -10
ARBOR VITAE    SUNNY      6  -7  54 NW12G17   30.25F WCI -10
WOODRUFF       SUNNY      6  -7  54 NW12G17   30.25F WCI -10
RHINELANDER    MOSUNNY    5  -8  55 W8        30.24F WCI  -8
EAGLE RIVER    MOSUNNY    5 -10  48 NW10      30.23F WCI -10
LAND O LAKES   PTSUNNY    6  -9  49 N9        30.24F WCI  -8
PHILLIPS       PTSUNNY    6  -7  53 NW10      30.28F WCI  -8
TOMAHAWK       MOSUNNY    7  -8  48 N6        30.27F WCI  -3
MEDFORD        PTSUNNY    7  -6  54 NW12      30.27F WCI  -9
MERRILL        SUNNY      9  -8  45 NW7       30.28S WCI  -3
$$

WIZ029-030-035-036-043>047-262000-
CENTRAL WISCONSIN

CITY           SKY/WX    TMP DP  RH WIND       PRES   REMARKS
WAUSAU         SUNNY      7  -7  52 NW12      30.28F WCI  -8
MOSINEE        MOSUNNY    7  -6  56 NW8       30.29F WCI  -6
MARSHFIELD     SUNNY      7  -6  55 NW15      30.30F WCI -10
STEVENS POINT  MOSUNNY    7  -9  48 NW7G17    30.30F WCI  -5
WAUPACA        MOSUNNY   15  -6  39 NW9       30.31F WCI   3
WAUTOMA        SUNNY     11  -7  44 N8G16     30.32F WCI  -1
WISC RAPIDS    SUNNY      8  -8  48 NW12      30.33F WCI  -7
CAMP DOUGLAS   MOSUNNY   12  -4  48 N8        30.33F WCI   1
$$

WIZ011>013-019>022-031-037>040-048>050-262000-
NORTHEAST WISCONSIN

CITY           SKY/WX    TMP DP  RH WIND       PRES   REMARKS
ANTIGO         SUNNY      6  -8  52 N8        30.24F WCI  -7
SHAWANO        PTSUNNY   14  -6  41 CALM      30.30F
OCONTO         PTSUNNY   10  -4  52 N3        30.32F
STURGEON BAY   SUNNY      7  -6  56 N8        30.32F WCI  -6
GREEN BAY      PTSUNNY   11  -3  53 N7        30.32F WCI   0
MANITOWOC      SUNNY     10  -2  58 N15       30.31S WCI  -7
APPLETON       MOSUNNY   10  -6  48 N10       30.30F WCI  -3
CLINTONVILLE   SUNNY     12  -6  44 NW3       30.31F
OSHKOSH        MOSUNNY   10  -4  53 NW10      30.30F WCI  -4
$$

WIZ032>034-041-042-053>061-262000-
SOUTHWEST WISCONSIN

CITY           SKY/WX    TMP DP  RH WIND       PRES   REMARKS
LA CROSSE      CLOUDY    13  -2  51 NW15      30.39F WCI  -3
SPARTA         PTSUNNY   13  -5  46 N10G20    30.36F WCI  -1
VIROQUA        MOSUNNY   10  -4  52 N12       30.31F WCI  -5
BOSCOBEL       MIX PCPN  13  -5  44 NW16      30.36F WCI  -3
PRAIRIE DU CHI SUNNY     11  -6  45 NW10G18   30.37F WCI  -2
PLATTEVILLE    SUNNY     10  -3  53 N14       30.30F WCI  -5
$$

WIZ056-057-062-063-064-067-068-262000-
SOUTH CENTRAL WISCONSIN

CITY           SKY/WX    TMP DP  RH WIND       PRES   REMARKS
REEDSBURG      MOSUNNY   10  -5  50 NW7       30.32S WCI  -1
BARABOO/DELLS  PTSUNNY   11  -6  47 NW10      30.30F WCI  -3
LONE ROCK      SUNNY     12  -7  42 N9        30.35S WCI   0
MINERAL POINT  SUNNY     14  -8  37 N8        30.29S WCI   3
MADISON        MOSUNNY   11  -5  48 N15       30.30F WCI  -5
MIDDLETON      SUNNY     13  -5  44 N10       30.31S WCI   0
WATERTOWN      SUNNY     11  -3  53 NW14G20   30.29S WCI  -4
MONROE         SUNNY     12   0  57 N9        30.27S WCI   0
JANESVILLE     SUNNY     12  -2  52 N12       30.29F WCI  -2
$$

WIZ051-052-058>065-066-070>072-262000-
SOUTHEAST WISCONSIN

CITY           SKY/WX    TMP DP  RH WIND       PRES   REMARKS
MILWAUKEE      PTSUNNY   15  -1  49 N12       30.27S WCI   2
WAUKESHA       NOT AVBL
MILWAUKEE/TIMM SUNNY     16  -4  41 N7        30.28F WCI   6
RACINE         MOSUNNY   14   3  61 N16       30.28S WCI  -2
BURLINGTON     SUNNY     13  -4  48 N12       30.27R WCI  -1
KENOSHA        SUNNY     15   0  51 N12       30.25F WCI   2
FOND DU LAC    SUNNY     10  -4  53 NE16      30.31F WCI  -7
SHEBOYGAN      SUNNY     11  -4  51 N18G26    30.29S WCI  -7
WEST BEND      SUNNY     12  -6  44 N10       30.27S WCI  -1
JUNEAU         SUNNY     10  -4  52 NW12      30.29F WCI  -5
$$

LSZ147-162-262000-
LAKE SUPERIOR

STATION/POSITION TIME  TEMP    WIND        PRES    WAVE
                       AIR SEA DIR/SP/G            HT/PER
                 (UTC) (F)     (DEG/KT/KT) (MB)    (FT/S)
DEVILS ISLAND    1900    4     280/  8/ 12 1031.5F
PORT WING        1800    4     290/  8/ 11 1030.8S
SAXON HARBOR     1800    5     320/  3/  9 1030.1
$$

LMZ867-665-643>646-262000-
LAKE MICHIGAN

STATION/POSITION TIME  TEMP    WIND        PRES    WAVE
                       AIR SEA DIR/SP/G            HT/PER
                 (UTC) (F)     (DEG/KT/KT) (MB)    (FT/S)
NORTHPORT PIER   1821    6     360/  7/ 12 1027.1F
SISTER BAY       1813   13     360/ 12/ 18   N/A
KEWAUNEE LAKESHO 1800    8     350/ 12/ 19 1026.0R
SHEBOYGAN LAKESH 1900    9     350/ 16/ 19 1027.7S
PORT WASHINGTON  1840   13     360/  7/ 13 1026.4S
MILWAUKEE LAKESH 1800   12     360/ 13/ 17   N/A
KENOSHA   LAKESH 1900   15     330/ 12/ 16 1024.7R
$$

TC  - TEMPERATURE IN CELSIUS
VSB - VISIBILITY IN STATUTE MILES
WCI - WIND CHILL INDEX
HX  - HEAT INDEX




USA.gov is the U.S. government's official web portal to all federal, state and local government web resources and services.